Location: Bay Shore Mobile Home Park
(38.5762°N, 75.0841°W)
Time: 08:44:41
(UTC+00:00)

Cosmos 1943 Rocket - Pass Details

Date: 15 November 2025
Orbit: 812 x 841 km, 71.0° (Epoch: 05 December)

Event Time Altitude Azimuth Distance (km) Brightness Sun altitude
Rises 23:22:07 0° 216° (SW) 3,375 6.0 -18.6°
Reaches altitude 10° 23:24:38 10° 222° (SW) 2,442 5.3 -19.1°
Maximum altitude 23:30:03 49° 297° (WNW) 1,064 3.0 -20.2°
Drops below altitude 10° 23:35:28 10° 12° (NNE) 2,438 4.4 -21.2°
Enters shadow 23:36:10 - 14° (NNE) 2,694 4.6 -21.3°
